N0MR Weather Reports


time (UTC)temp
F
wind
direction
speed
knots
gust
knots
rain 1hr
in
rain 24hr
in
rain mn
in
humidity
%
barometer
mb
20260831124535 64 240 0.0 0.0 0.00 0.00 0.00 98 1008.1
20260831123534 64 240 0.0 0.0 0.00 0.00 0.00 97 1008.4
20260831122534 64 240 0.0 0.0 0.00 0.00 0.00 97 1008.4
20260831120535 64 240 0.0 0.9 0.00 0.00 0.00 98 1008.4
20260831115535 63 241 0.0 0.0 0.00 0.00 0.00 98 1008.1
20260831114535 63 241 0.0 0.0 0.00 0.00 0.00 98 1008.1
20260831113534 63 241 0.0 0.9 0.00 0.00 0.00 97 1007.9
20260831112535 63 241 0.0 0.9 0.00 0.00 0.00 97 1007.9
20260831111535 62 241 0.0 5.2 0.00 0.00 0.00 97 1008.4
20260831110535 62 241 0.0 5.2 0.00 0.00 0.00 97 1008.4
20260831105535 62 195 0.0 0.0 0.00 0.00 0.00 97 1009.0
20260831104534 62 195 0.0 0.0 0.00 0.00 0.00 97 1009.0
20260831103534 62 188 0.0 0.9 0.00 0.00 0.00 97 1008.2
20260831102536 62 188 0.0 0.9 0.00 0.00 0.00 97 1008.2
20260831101535 62 198 0.0 0.9 0.00 0.00 0.00 97 1008.1
20260831100535 62 198 0.0 0.9 0.00 0.00 0.00 97 1008.1
20260831095535 62 181 0.0 0.9 0.00 0.00 0.00 97 1008.5
20260831094535 61 201 0.0 1.7 0.00 0.00 0.00 97 1008.0
20260831093535 61 201 0.0 1.7 0.00 0.00 0.00 97 1008.0
20260831092536 61 36 0.0 1.7 0.00 0.00 0.00 97 1008.4
20260831091535 61 36 0.0 1.7 0.00 0.00 0.00 97 1008.4
20260831090535 61 51 0.0 1.7 0.00 0.00 0.00 97 1008.5
20260831085535 61 51 0.0 1.7 0.00 0.00 0.00 97 1008.5
20260831084536 61 5 0.0 3.5 0.00 0.00 0.00 97 1008.4
20260831083544 61 5 0.0 3.5 0.00 0.00 0.00 97 1008.4
20260831082536 61 38 0.0 0.9 0.00 0.00 0.00 97 1008.5
20260831081535 61 38 0.0 0.9 0.00 0.00 0.00 97 1008.5
20260831080535 61 304 0.0 0.9 0.00 0.00 0.00 97 1008.6
20260831075536 61 304 0.0 0.9 0.00 0.00 0.00 97 1008.6
20260831074536 61 304 0.0 0.0 0.00 0.00 0.00 97 1008.9
20260831073538 61 304 0.0 0.0 0.00 0.00 0.00 97 1008.9
20260831072537 61 304 0.0 1.7 0.00 0.00 0.00 97 1009.5
20260831071537 61 304 0.0 1.7 0.00 0.00 0.00 97 1009.5
20260831070537 61 227 0.0 7.0 0.00 0.00 0.00 97 1009.5
20260831065546 61 227 0.0 7.0 0.00 0.00 0.00 97 1009.5
20260831064536 61 227 0.0 7.0 0.00 0.00 0.00 97 1009.2
20260831063537 61 226 0.0 1.7 0.00 0.00 0.00 97 1009.3
20260831062536 61 226 0.0 1.7 0.00 0.00 0.00 97 1009.3
20260831061536 61 179 0.0 1.7 0.00 0.00 0.00 97 1010.2
20260831060537 61 179 0.0 1.7 0.00 0.00 0.00 97 1010.2
20260831055540 61 300 0.0 1.7 0.00 0.00 0.00 97 1010.4
20260831054536 61 300 0.0 1.7 0.00 0.00 0.00 97 1010.4
20260831053537 61 300 0.0 1.7 0.00 0.00 0.00 96 1010.8
20260831052537 61 300 0.0 1.7 0.00 0.00 0.00 96 1010.8
20260831051537 61 233 0.0 1.7 0.00 0.00 0.00 96 1011.4
20260831050536 61 233 0.0 1.7 0.00 0.00 0.00 96 1011.4
20260831045537 61 144 0.0 0.9 0.00 0.00 0.00 96 1011.4
20260831044537 61 144 0.0 0.9 0.00 0.00 0.00 96 1011.4
20260831043536 61 60 0.0 4.3 0.00 0.00 0.00 96 1011.3
20260831042536 61 60 0.0 4.3 0.00 0.00 0.00 96 1011.3
20260831041536 61 155 0.0 1.7 0.00 0.00 0.00 96 1011.3
20260831040537 61 155 0.0 1.7 0.00 0.00 0.00 96 1011.3
20260831035536 61 206 0.0 4.3 0.00 0.00 0.00 96 1011.5
20260831034536 61 206 0.0 4.3 0.00 0.00 0.00 96 1011.5
20260831033536 61 22 0.0 4.3 0.00 0.00 0.00 95 1011.6
20260831032536 61 61 0.0 1.7 0.00 0.00 0.00 95 1011.8
20260831031537 61 61 0.0 1.7 0.00 0.00 0.00 95 1011.8
20260831030536 61 182 0.0 1.7 0.00 0.00 0.00 95 1011.8
20260831025538 61 182 0.0 1.7 0.00 0.00 0.00 95 1011.8
20260831024537 62 226 0.9 0.9 0.00 0.00 0.00 95 1011.4
20260831023538 62 226 0.9 0.9 0.00 0.00 0.00 95 1011.4
20260831022539 62 175 0.0 0.9 0.00 0.00 0.00 94 1011.1
20260831021538 62 175 0.0 0.9 0.00 0.00 0.00 94 1011.1
20260831020537 62 150 0.0 6.1 0.00 0.00 0.00 94 1011.3
20260831015539 62 150 0.0 6.1 0.00 0.00 0.00 94 1011.3
20260831014538 62 316 0.0 4.3 0.00 0.00 0.00 94 1011.0
20260831013539 62 316 0.0 4.3 0.00 0.00 0.00 94 1011.0
20260831012537 62 134 0.0 1.7 0.00 0.00 0.00 94 1010.6
20260831011538 62 134 0.0 1.7 0.00 0.00 0.00 94 1010.6
20260831010537 63 184 0.0 3.5 0.00 0.00 0.00 93 1010.7
20260831005539 63 184 0.0 3.5 0.00 0.00 0.00 93 1010.7
20260831004539 63 126 0.0 1.7 0.00 0.00 0.00 93 1011.3
20260831003538 63 126 0.0 1.7 0.00 0.00 0.00 93 1011.3
20260831002538 63 267 0.0 2.6 0.00 0.00 0.00 93 1011.9
20260831001539 63 273 0.0 2.6 0.00 0.00 0.00 93 1012.0
20260831000538 63 273 0.0 2.6 0.00 0.00 0.00 93 1012.0
20260830235539 64 53 0.0 0.9 0.00 0.00 0.00 92 1011.8
20260830234538 64 53 0.0 0.9 0.00 0.00 0.00 92 1011.8
20260830233538 64 132 0.0 1.7 0.00 0.00 0.00 92 1011.8
20260830232539 64 132 0.0 1.7 0.00 0.00 0.00 92 1011.8
20260830231538 64 167 0.0 1.7 0.00 0.00 0.00 92 1011.8
20260830230540 64 167 0.0 1.7 0.00 0.00 0.00 92 1011.8
20260830225539 64 104 0.0 1.7 0.00 0.00 0.00 92 1011.8
20260830224538 64 104 0.0 1.7 0.00 0.00 0.00 92 1011.8
20260830223540 64 60 0.0 1.7 0.00 0.00 0.00 93 1012.2
20260830222540 64 60 0.0 1.7 0.00 0.00 0.00 93 1012.2
20260830221539 63 114 0.0 4.3 0.00 0.00 0.00 92 1012.1
20260830220540 63 114 0.0 4.3 0.00 0.00 0.00 92 1012.1
20260830215541 64 350 0.0 3.5 0.00 0.00 0.00 91 1012.2
20260830214538 64 350 0.0 3.5 0.00 0.00 0.00 91 1012.2
20260830213539 64 355 0.0 0.9 0.00 0.00 0.00 92 1012.6
20260830212540 64 355 0.0 0.9 0.00 0.00 0.00 92 1012.6
20260830211539 64 169 0.0 6.1 0.00 0.00 0.00 91 1012.5
20260830210539 64 28 0.0 4.3 0.00 0.00 0.00 91 1012.6
20260830205549 64 28 0.0 4.3 0.00 0.00 0.00 91 1012.6
20260830204540 64 335 0.0 0.9 0.00 0.00 0.00 91 1012.6
20260830203539 64 335 0.0 0.9 0.00 0.00 0.00 91 1012.6
20260830202540 64 263 0.0 1.7 0.00 0.00 0.00 91 1012.2
20260830201549 64 263 0.0 1.7 0.00 0.00 0.00 91 1012.2
20260830200540 64 198 0.0 3.5 0.00 0.00 0.00 91 1012.3
20260830195540 64 198 0.0 3.5 0.00 0.00 0.00 91 1012.3
20260830194541 64 57 0.0 1.7 0.00 0.00 0.00 91 1012.4
20260830193540 64 57 0.0 1.7 0.00 0.00 0.00 91 1012.4
20260830192540 64 193 0.0 4.3 0.00 0.00 0.00 91 1012.3
20260830191542 64 193 0.0 4.3 0.00 0.00 0.00 91 1012.3
20260830190541 63 121 0.0 1.7 0.00 0.00 0.00 93 1012.3
20260830185539 63 121 0.0 1.7 0.00 0.00 0.00 93 1012.3
20260830184540 63 132 0.0 4.3 0.00 0.00 0.00 94 1012.1
20260830183541 63 132 0.0 4.3 0.00 0.00 0.00 94 1012.1
20260830182540 62 80 0.0 1.7 0.00 0.00 0.00 94 1012.1
20260830181541 62 80 0.0 1.7 0.00 0.00 0.00 94 1012.1
20260830180540 62 167 0.0 1.7 0.00 0.00 0.00 94 1012.1
20260830175541 62 186 0.0 5.2 0.00 0.00 0.00 94 1012.5
20260830174540 62 186 0.0 5.2 0.00 0.00 0.00 94 1012.5
20260830173541 62 263 0.0 4.3 0.00 0.00 0.00 95 1012.5
20260830172540 62 263 0.0 4.3 0.00 0.00 0.00 95 1012.5
20260830171540 62 187 0.0 4.3 0.00 0.00 0.00 95 1012.7
20260830170541 62 187 0.0 4.3 0.00 0.00 0.00 95 1012.7
20260830165541 62 227 0.0 3.5 0.00 0.00 0.00 96 1012.8
20260830164541 62 227 0.0 3.5 0.00 0.00 0.00 96 1012.8
20260830161541 62 253 0.0 0.9 0.00 0.00 0.00 95 1012.8
20260830160540 62 253 0.0 0.9 0.00 0.00 0.00 95 1012.8
20260830155541 61 195 0.0 1.7 0.00 0.00 0.00 96 1013.0
20260830154542 61 195 0.0 1.7 0.00 0.00 0.00 96 1013.0
20260830153541 61 252 0.0 5.2 0.00 0.00 0.00 96 1012.7
20260830152542 61 252 0.0 5.2 0.00 0.00 0.00 96 1012.7
20260830151542 61 278 0.0 0.9 0.00 0.00 0.00 96 1012.5
20260830150541 61 278 0.0 0.9 0.00 0.00 0.00 96 1012.5
20260830145542 61 305 0.0 1.7 0.00 0.00 0.00 96 1012.2
20260830144542 61 32 0.0 5.2 0.00 0.00 0.00 96 1011.8
20260830143541 61 32 0.0 5.2 0.00 0.00 0.00 96 1011.8
20260830142541 61 71 0.0 4.3 0.00 0.00 0.00 96 1012.0
20260830141543 61 71 0.0 4.3 0.00 0.00 0.00 96 1012.0
20260830140542 61 238 0.0 3.5 0.00 0.00 0.00 96 1012.2
20260830135545 61 238 0.0 3.5 0.00 0.00 0.00 96 1012.2
20260830134542 61 267 0.0 1.7 0.00 0.00 0.00 96 1012.5
20260830133542 61 267 0.0 1.7 0.00 0.00 0.00 96 1012.5
20260830132542 61 317 0.0 0.0 0.00 0.00 0.00 96 1012.8
20260830131542 61 317 0.0 0.0 0.00 0.00 0.00 96 1012.8
20260830130542 61 290 0.0 3.5 0.00 0.00 0.00 96 1012.6
20260830125542 61 290 0.0 3.5 0.00 0.00 0.00 96 1012.6